Location: Mahannah Oil Field
(37.4664°N, 96.6003°W)
Time: 02:09:44
(UTC+00:00)

Tiros 1 despin weight - Pass Details

Date: 25 January 2021
Orbit: 593 x 642 km, 48.2° (Epoch: 25 February)

Event Time Altitude Azimuth Distance (km) Brightness Sun altitude
Rises 02:46:17 0° 301° (WNW) 2,841 ? -36.4°
Reaches altitude 10° 02:48:36 10° 298° (WNW) 1,931 ? -36.9°
Enters shadow 02:49:03 13° 297° (WNW) 1,759 ? -37.0°
Maximum altitude 02:52:57 61° 219° (SW) 675 - -37.8°
Drops below altitude 10° 02:57:17 10° 139° (SE) 1,913 - -38.6°
Sets 02:59:34 0° 135° (SE) 2,812 - -39.1°
